Location: Astronomy Club of Akron Observatory
(40.9700°N, 81.5606°W)
Time: 12:12:16
(UTC-05:00)

N. Korean satellite - Visible Passes

Search period start: 19 February 2019 00:00
Search period end: 01 March 2019 00:00
Orbit: 457 x 510 km, 97.2° (Epoch: 18 February)

Date Brightness Start Highest point End Pass type
(mag) Time Alt. Az. Time Alt. Az. Time Alt. Az.
19 Feb 7.9 06:19:37 10° NNE 06:22:57 42° E 06:26:13 10° S visible
19 Feb 9.1 18:28:25 10° SSW 18:31:38 29° W 18:34:51 10° NW visible
20 Feb 9.5 05:55:28 10° NE 05:58:06 20° E 06:00:42 10° SE visible
22 Feb 6.6 06:38:41 10° NNE 06:42:09 83° ESE 06:45:34 10° S visible
22 Feb 10.0 18:48:32 10° SW 18:50:57 17° W 18:53:21 10° NW visible
23 Feb 8.3 06:14:09 10° NNE 06:17:21 36° E 06:20:32 10° SSE visible
24 Feb 9.7 05:50:07 10° NE 05:52:29 17° E 05:54:50 10° SE visible
26 Feb 6.9 06:33:06 10° NNE 06:36:33 69° E 06:39:57 10° S visible
26 Feb 9.9 18:42:43 10° SW 18:45:21 19° W 18:47:58 10° NW visible
27 Feb 8.7 06:08:39 10° NNE 06:11:44 30° E 06:14:48 10° SSE visible
28 Feb 9.9 05:44:47 10° NE 05:46:50 15° E 05:48:53 10° SE visible
